Regional Weather Roundup
Issued by NWS Wakefield, VA

Home | Current Version | Previous Version | Text Only | Print | Product List | Glossary On
Versions: 1 2 3 4 5 6 7 8 9 10 11 12 13 14 15 16 17 18 19 20 21 22 23 24 25 26 27 28 29 30 31 32 33 34 35 36 37 38 39 40 41 42 43 44 45 46 47 48 49 50
000
ASUS41 KAKQ 040814
RWRAKQ

REGIONAL WEATHER ROUNDUP
NATIONAL WEATHER SERVICE WAKEFIELD VA
400 AM EDT FRI SEP 04 2015

Note: "fair" indicates few or no clouds below 12,000 feet with no
significant weather and/or obstructions to visibility. * = Denotes
station may not report precipitation (e.g., rain,snow,etc.),
thunder or fog.

VAZ042-051-052>054-056-040900-
NORTHERN VIRGINIA

CITY           SKY/WX    TMP DP  RH WIND       PRES   REMARKS
WASH NATIONAL  CLEAR     77  69  76 N6        29.92R
DULLES         PTCLDY    74  67  78 CALM      29.93R
FORT BELVOIR   PTCLDY    70  68  94 CALM      29.91R
QUANTICO       PTCLDY    74  68  81 NW5       29.92R
FREDERICKSBRG* PTCLDY    72  72 100 CALM      29.91R
STAFFORD*      PTCLDY    68  66  94 NW3       29.96R FOG
WARRENTON      PTCLDY    68  67  98 CALM      29.92S FOG
CULPEPER*      CLEAR     68  68  99 CALM      29.93S FOG
MANASSAS*      PTCLDY    70  70 100 CALM      29.93R
LEESBURG*      PTCLDY    73  72  94 W10       29.94S
WINCHESTER     PTCLDY    70  68  94 CALM      29.97R FOG
FRONT ROYAL*   FAIR      68  68 100 CALM      29.96R
LURAY*         FOG       64  64 100 CALM      29.98R VSB 1/2
$$

VAZ048-049-060>072-079>083-040900-
CENTRAL AND SOUTH CENTRAL VIRGINIA

CITY           SKY/WX    TMP DP  RH WIND       PRES   REMARKS
RICHMOND       CLEAR     76  69  79 N3        29.91R
CHESTERFIELD*  FAIR      72  61  68 CALM      29.93R
PETERSBURG*    FOG       70  70 100 CALM      29.93R VSB 1
HANOVER        CLEAR     70  69  97 CALM      29.93R FOG
TAPPAHANNOCK*  CLEAR     70  68  91 CALM      29.92R FOG
QUINTON*       FAIR      71  70  98 CALM      29.90S FOG
CHARLOTTSVILLE CLEAR     70  67  90 CALM      29.94R
GORDONSVILLE*  FAIR      70  69  97 CALM      29.93R
ORANGE*        CLEAR     70  68  94 CALM      29.95R
LOUISA*        CLEAR     70  66  88 CALM      29.92S
BUMPASS*       FAIR      69  69  98 CALM      29.92S
FARMVILLE*     CLEAR     68  68 100 CALM      29.93R FOG
CREWE*         FAIR     N/A N/A N/A CALM      29.93R
FORT PICKETT*  FAIR      69  68  98 W8        29.93R
CHASE CITY*    FAIR      71  71 100 CALM      29.94S
CLARKSVILLE*   FAIR      72  70  94 CALM      29.93R
SOUTH HILL*    PTCLDY    70  69  95 CALM      29.99R
LAWRENCEVILLE* FAIR      70  70 100 CALM      29.92S
EMPORIA*       FOG       68  68 100 CALM      29.93R VSB 3/4
$$

VAZ088>098-040900-
SOUTHEAST VIRGINIA

CITY           SKY/WX    TMP DP  RH WIND       PRES   REMARKS
NORFOLK        CLEAR     76  71  85 CALM      29.90R
VIRGINIA BEACH PTCLDY    76  70  82 CALM      29.89R
NORFOLK NAVAL  MOCLDY    74  72  93 CALM      29.91R FOG
WEST POINT*    CLEAR     73  70  92 CALM      29.91R
SALUDA*        FAIR      72  70  94 N5        29.90R
NEWPORT NEWS   CLEAR     72  70  93 CALM      29.90R FOG
LANGLEY AFB    LGT RAIN  74  72  95 CALM      29.89R FOG
FORT EUSTIS    CLEAR     73 N/A N/A NW2       29.88R
WILLIAMSBURG*  PTCLDY    75  73  94 CALM      29.91R
HR EXEC AP*      N/A     66  64  94 CALM      29.92R VSB 3/4
FRANKLIN*      PTCLDY    70  69  99 CALM      29.91R FOG
WAKEFIELD      PTCLDY    71  68  90 CALM      29.91R FOG
$$

VAZ020-022-025-037-045-040900-
WEST CENTRAL AND SOUTHWEST VIRGINIA

CITY           SKY/WX    TMP DP  RH WIND       PRES   REMARKS
STAUNTON*      CLEAR     66  65  95 CALM      30.02R FOG
WAYNESBORO*    FAIR      67  65  93 CALM      30.01R
HOT SPRINGS VA CLEAR     68  61  78 N8        30.12S
LYNCHBURG      CLEAR     68  66  93 CALM      29.97S
DANVILLE       CLEAR     68  66  93 SW3       29.94S FOG
SOUTH BOSTON*    N/A     68  67  95 CALM      29.94R
MARTINSVILLE   CLEAR     65  65 100 CALM      30.00R FOG
ROANOKE        CLEAR     70  66  87 CALM      30.01R
BLACKSBURG     CLEAR     65  65 100 CALM      30.08R FOG
DUBLIN*        PTCLDY    67  66  99 CALM      30.07R
MARION*        CLEAR     64  63  96 CALM      30.11R FOG
HILLSVILLE*    PTCLDY    68  64  85 NW3       30.07R
RICHLANDS*     FAIR      67  38  35 CALM      30.10R
WISE*          CLEAR     66  66 100 CALM      30.11R
ABINGDON*      CLEAR     67  64  91 CALM      30.07R
$$

MDZ021>025-VAZ099-100-040900-
SOUTHERN MARYLAND AND THE DELMARVA PENINSULA

CITY           SKY/WX    TMP DP  RH WIND       PRES   REMARKS
PATUXENT RIVER CLEAR     70  68  93 W5        29.89S
BAY BRIDGE APT   N/A     77  73  88 NW5       29.90R
LEONARDTOWN    NOT AVBL
DOVER          PTCLDY    73  73 100 CALM      29.88R FOG
GEORGETOWN     PTCLDY    70  68  93 CALM      29.90R FOG
EASTON         NOT AVBL
CAMBRIDGE      PTCLDY    72  68  88 CALM      29.89R
SALISBURY      PTCLDY    72  70  93 CALM      29.89R FOG
OCEAN CITY     CLEAR     71  69  93 NW3       29.89R
WALLOPS ISLAND CLEAR     73  73 100 NW6       29.89S FOG
ACCOMACK*      CLEAR     68  64  88 CALM      29.87R FOG
$$

NCZ012>017-030>032-040900-
NORTH CENTRAL AND EASTERN NORTH CAROLINA

CITY           SKY/WX    TMP DP  RH WIND       PRES   REMARKS
ROANOKE RAPIDS FAIR      70  70 100 CALM      29.92R FOG
RALEIGH        PTCLDY    72  68  87 CALM      29.94R
ELIZABETH CITY PTCLDY    73  71  93 S6        29.90R
AHOSKIE*       CLEAR     69  68  98 CALM      29.91S FOG
EDENTON*       PTCLDY    71  69  94 CALM      29.91R
CURRITUCK*     PTCLDY    73  69  90 CALM      29.91R
KILL DEVIL HLS PTCLDY    76  74  93 CALM      29.89R FOG
MANTEO         PTCLDY    76  74  93 W3        29.90S
CAPE HATTERAS  CLEAR     78  74  87 N3        29.90R
TARBORO*       FAIR      70  69  96 CALM      29.92S FOG
GOLDSBORO      CLEAR     72  71  96 CALM      29.90S
WASHINGTON     CLEAR     70  69  96 CALM      29.91R
GREENVILLE     PTCLDY    72  72 100 CALM      29.93S FOG
NEW BERN       CLEAR     71  69  93 CALM      29.92R
WILMINGTON     CLEAR     71  69  93 CALM      29.91S
$$

VAZ048-040900-
ELSEWHERE

CITY           SKY/WX    TMP DP  RH WIND       PRES   REMARKS
HARRISBURG PA  MOCLDY    74  68  81 NW5       29.93R
BALTIMORE      MOCLDY    74  69  85 CALM      29.90S
ANNAPOLIS      PTCLDY    77  73  87 NW3       29.89R
ANDREWS AFB    CLEAR     72  69  89 NW3       29.91R
PHILADELPHIA   MOCLDY    79  69  71 NW3       29.91R
HENDERSON NC   CLEAR     69  66  92 CALM      29.94S FOG
GREENSBORO     PTCLDY    72  67  84 CALM      29.95S
ROCKY MOUNT    FOG       71  70  96 CALM      29.92R VSB 1
$$

VAZ100-040900-
MARINE

STATION/POSITION TIME  TEMP    WIND        PRES    WAVE   SWELL
                       AIR SEA DIR/SP/G            HT/PER HT/PER
                 (UTC) (F)     (DEG/KT/KT) (MB)    (FT/S) (FT/S)
BRANDYWINE LGT   0700   77 76  180/  4/  5 1012.2F
CAPE MAY NJ      0700   73 81  110/  2/  2 1011.5F
LEWES DE         0700   74 76  120/  1/  2 1011.7F
15NM E FENWICK I 0750   79 80   60/  6/  8 1012.2R   1/13   2/13
OCEAN-CITY-INLET 0700   77 78   20/  3/  4 1010.9F
GOOSES REEF MD   0800   81 80  350/  6/  8 1013.4R
COVE POINT MD    0700   78     320/  4/  4 1012.7R
SOLOMONS ISLAND  0700      82                N/A
BISHOPS HEAD MD  0700   79 83  350/  3/  3 1011.0F
PINEY POINT MD   0705          350/  4/  4   N/A
POTOMAC MD       0800   80 81  310/  6/  6 1011.2R   0
CAMBRIDGE MD     0700   78 82   CALM  /  1 1011.1R
LEWISETTA VA     0700   77 82  290/  2/  3 1011.7R
RAPPAHANNOCK LGT 0700          260/  2/  2 1012.5S
STINGRAY PT      0800   80 80  300/  6/  8 1012.6R
YORK RVR RNG VA  0700   80     320/  4/  4 1011.3F
JAMESTOWN VA     0800   78 82  360/  2/  4   N/A
DOMINION TERM VA 0700   79     300/  4/  5 1011.7F
KIPTOPEKE VA     0700      80   CALM  /  1   N/A
CHES BAY BRIDGE  0700   79 79  220/  3/  4 1011.4F
CAPE HENRY VA    0700   78     240/  5/  5   N/A
CHESAPEAKE LGHT  0700   79     260/  5/  5 1012.7R
WILLOUBY STN VA  0700   80        CALM     1012.7F
CAPE HENRY BUOY  0728      80                N/A     1/12
1ST LANDING BUOY 0800      80              1012.1R   1
CAPE CHARLES BUO 0726      80                N/A     1/12   2/12
OFFSHORE WE BUOY 0711      80                N/A     1/13   2/13
64NM E OF VA BCH 0750   79 79  260/  4/  6 1011.8R   1/ 9   2/ 9
DUCK PIER NC     0700   80 80  260/  5/  5 1011.2F
44100 DUCK FRF   0724      79                N/A     1/13
44056 DUCK FRF   0711      80                N/A     1/13
OREGON INLET NC  0700   79 83  270/  4/  5 1012.0F
HATTERAS NC      0700   81 83  310/  6/  6 1011.9F
DIAMOND SHLS NC  0750   81 85  330/  6/  8 1012.4R   1/12   2/12
CAPE LOOKOUT NC  0800   79     340/  6/  7 1012.1F
$$


USA.gov is the U.S. government's official web portal to all federal, state and local government web resources and services.